owner,sensor,date,latitude,longitude,vertical_datum,sea_water_speed,direction_of_sea_water_velocity,upward_sea_water_velocity,qcFlag
Kerr-McGee,ioos:station:wmo:42373:1,2021-01-16T20:46:00Z,27.3539,-94.6254,79.0,17.2,345.6,-9999.0,'111111111,111111111,999999991'
Kerr-McGee,ioos:station:wmo:42373:1,2021-01-16T21:06:00Z,27.3539,-94.6254,79.0,16.6,355.9,-9999.0,'111111111,111111111,999999991'
Kerr-McGee,ioos:station:wmo:42373:1,2021-01-16T21:26:00Z,27.3539,-94.6254,79.0,19.1,16.7,-9999.0,'111111111,111111111,999999991'
Kerr-McGee,ioos:station:wmo:42373:1,2021-01-16T21:46:00Z,27.3539,-94.6254,79.0,20.3,20.1,-9999.0,'111111111,111111111,999999991'
Kerr-McGee,ioos:station:wmo:42373:1,2021-01-16T22:06:00Z,27.3539,-94.6254,79.0,21.2,26.6,-9999.0,'111111111,111111111,999999991'
Kerr-McGee,ioos:station:wmo:42373:1,2021-01-16T22:26:00Z,27.3539,-94.6254,79.0,21.5,27.8,-9999.0,'111111111,111111111,999999991'
Kerr-McGee,ioos:station:wmo:42373:1,2021-01-16T22:46:00Z,27.3539,-94.6254,79.0,19.9,22.4,-9999.0,'111111111,111111111,999999991'
Kerr-McGee,ioos:station:wmo:42373:1,2021-01-16T23:06:00Z,27.3539,-94.6254,79.0,20.1,23.8,-9999.0,'111111111,111111111,999999991'
Kerr-McGee,ioos:station:wmo:42373:1,2021-01-16T23:26:00Z,27.3539,-94.6254,79.0,23.5,29.3,-9999.0,'111111111,111111111,999999991'
Kerr-McGee,ioos:station:wmo:42373:1,2021-01-16T23:46:00Z,27.3539,-94.6254,79.0,26.6,32.1,-9999.0,'111111111,111111111,999999991'
Kerr-McGee,ioos:station:wmo:42373:1,2021-01-17T00:06:00Z,27.3539,-94.6254,79.0,30.6,40.4,-9999.0,'111111111,111111111,999999991'
Kerr-McGee,ioos:station:wmo:42373:1,2021-01-17T00:26:00Z,27.3539,-94.6254,79.0,33.5,47.2,-9999.0,'111111111,111111111,999999991'
Kerr-McGee,ioos:station:wmo:42373:1,2021-01-17T00:46:00Z,27.3539,-94.6254,79.0,34.8,49.4,-9999.0,'111111111,111111111,999999991'
Kerr-McGee,ioos:station:wmo:42373:1,2021-01-17T01:06:00Z,27.3539,-94.6254,79.0,34.7,49.3,-9999.0,'111111111,111111111,999999991'
Kerr-McGee,ioos:station:wmo:42373:1,2021-01-17T01:26:00Z,27.3539,-94.6254,79.0,34.4,50.3,-9999.0,'111111111,111111111,999999991'
Kerr-McGee,ioos:station:wmo:42373:1,2021-01-17T01:46:00Z,27.3539,-94.6254,79.0,32.3,50.8,-9999.0,'111111111,111111111,999999991'
Kerr-McGee,ioos:station:wmo:42373:1,2021-01-17T02:06:00Z,27.3539,-94.6254,79.0,33.6,52.9,-9999.0,'111111111,111111111,999999991'
Kerr-McGee,ioos:station:wmo:42373:1,2021-01-17T02:26:00Z,27.3539,-94.6254,79.0,35.9,53.4,-9999.0,'111111111,111111111,999999991'
Kerr-McGee,ioos:station:wmo:42373:1,2021-01-17T02:46:00Z,27.3539,-94.6254,79.0,33.9,53.2,-9999.0,'111111111,111111111,999999991'
Kerr-McGee,ioos:station:wmo:42373:1,2021-01-17T03:06:00Z,27.3539,-94.6254,79.0,31.9,55.6,-9999.0,'111111111,111111111,999999991'
Kerr-McGee,ioos:station:wmo:42373:1,2021-01-17T03:26:00Z,27.3539,-94.6254,79.0,30.9,57.3,-9999.0,'111111111,111111111,999999991'
Kerr-McGee,ioos:station:wmo:42373:1,2021-01-17T03:46:00Z,27.3539,-94.6254,79.0,29.3,57.8,-9999.0,'111111111,111111111,999999991'
Kerr-McGee,ioos:station:wmo:42373:1,2021-01-17T04:06:00Z,27.3539,-94.6254,79.0,27.8,58.1,-9999.0,'111111111,111111111,999999991'
Kerr-McGee,ioos:station:wmo:42373:1,2021-01-17T04:26:00Z,27.3539,-94.6254,79.0,26.7,61.3,-9999.0,'111111111,111111111,999999991'
Kerr-McGee,ioos:station:wmo:42373:1,2021-01-17T04:46:00Z,27.3539,-94.6254,79.0,26.0,64.7,-9999.0,'111111111,111111111,999999991'
Kerr-McGee,ioos:station:wmo:42373:1,2021-01-17T05:06:00Z,27.3539,-94.6254,79.0,23.8,64.6,-9999.0,'111111111,111111111,999999991'
Kerr-McGee,ioos:station:wmo:42373:1,2021-01-17T05:26:00Z,27.3539,-94.6254,79.0,23.1,65.4,-9999.0,'111111111,111111111,999999991'
Kerr-McGee,ioos:station:wmo:42373:1,2021-01-17T05:46:00Z,27.3539,-94.6254,79.0,20.2,64.2,-9999.0,'111111111,111111111,999999991'
Kerr-McGee,ioos:station:wmo:42373:1,2021-01-17T06:06:00Z,27.3539,-94.6254,79.0,19.7,66.0,-9999.0,'111111111,111111111,999999991'
Kerr-McGee,ioos:station:wmo:42373:1,2021-01-17T06:26:00Z,27.3539,-94.6254,79.0,18.7,71.6,-9999.0,'111111111,111111111,999999991'
Kerr-McGee,ioos:station:wmo:42373:1,2021-01-17T06:46:00Z,27.3539,-94.6254,79.0,16.7,72.2,-9999.0,'111111111,111111111,999999991'
Kerr-McGee,ioos:station:wmo:42373:1,2021-01-17T07:06:00Z,27.3539,-94.6254,79.0,16.4,71.9,-9999.0,'111111111,111111111,999999991'
Kerr-McGee,ioos:station:wmo:42373:1,2021-01-17T07:26:00Z,27.3539,-94.6254,79.0,16.0,76.2,-9999.0,'111111111,111111111,999999991'
Kerr-McGee,ioos:station:wmo:42373:1,2021-01-17T07:46:00Z,27.3539,-94.6254,79.0,14.9,82.3,-9999.0,'111111111,111111111,999999991'
Kerr-McGee,ioos:station:wmo:42373:1,2021-01-17T08:06:00Z,27.3539,-94.6254,79.0,13.6,83.7,-9999.0,'111111111,111111111,999999991'
Kerr-McGee,ioos:station:wmo:42373:1,2021-01-17T08:26:00Z,27.3539,-94.6254,79.0,12.6,89.1,-9999.0,'111111111,111111111,999999991'
Kerr-McGee,ioos:station:wmo:42373:1,2021-01-17T08:46:00Z,27.3539,-94.6254,79.0,13.2,92.6,-9999.0,'111111111,111111111,999999991'
Kerr-McGee,ioos:station:wmo:42373:1,2021-01-17T09:06:00Z,27.3539,-94.6254,79.0,11.8,97.3,-9999.0,'111111111,111111111,999999991'
Kerr-McGee,ioos:station:wmo:42373:1,2021-01-17T09:26:00Z,27.3539,-94.6254,79.0,12.3,98.9,-9999.0,'111111111,111111111,999999991'
Kerr-McGee,ioos:station:wmo:42373:1,2021-01-17T09:46:00Z,27.3539,-94.6254,79.0,10.2,102.4,-9999.0,'111111111,111111111,999999991'
Kerr-McGee,ioos:station:wmo:42373:1,2021-01-17T10:06:00Z,27.3539,-94.6254,79.0,9.3,105.5,-9999.0,'111111111,111111111,999999991'
Kerr-McGee,ioos:station:wmo:42373:1,2021-01-17T10:26:00Z,27.3539,-94.6254,79.0,9.4,103.6,-9999.0,'111111111,111111111,999999991'
Kerr-McGee,ioos:station:wmo:42373:1,2021-01-17T10:46:00Z,27.3539,-94.6254,79.0,9.0,101.6,-9999.0,'111111111,111111111,999999991'
Kerr-McGee,ioos:station:wmo:42373:1,2021-01-17T11:06:00Z,27.3539,-94.6254,79.0,8.6,102.7,-9999.0,'111111111,111111111,999999991'
Kerr-McGee,ioos:station:wmo:42373:1,2021-01-17T11:26:00Z,27.3539,-94.6254,79.0,7.5,103.1,-9999.0,'111111111,111111111,999999991'
Kerr-McGee,ioos:station:wmo:42373:1,2021-01-17T11:46:00Z,27.3539,-94.6254,79.0,9.1,90.6,-9999.0,'111111111,111111111,999999991'
Kerr-McGee,ioos:station:wmo:42373:1,2021-01-17T12:06:00Z,27.3539,-94.6254,79.0,7.3,90.0,-9999.0,'111111111,111111111,999999991'
Kerr-McGee,ioos:station:wmo:42373:1,2021-01-17T12:26:00Z,27.3539,-94.6254,79.0,5.9,89.0,-9999.0,'111111111,111111111,999999991'
Kerr-McGee,ioos:station:wmo:42373:1,2021-01-17T12:46:00Z,27.3539,-94.6254,79.0,2.1,73.3,-9999.0,'111331111,111111111,999999991'
Kerr-McGee,ioos:station:wmo:42373:1,2021-01-17T13:06:00Z,27.3539,-94.6254,79.0,1.2,270.0,-9999.0,'111331111,111111111,999999991'
Kerr-McGee,ioos:station:wmo:42373:1,2021-01-17T13:26:00Z,27.3539,-94.6254,79.0,2.1,84.6,-9999.0,'111331111,111111111,999999991'
Kerr-McGee,ioos:station:wmo:42373:1,2021-01-17T13:46:00Z,27.3539,-94.6254,79.0,1.4,77.9,-9999.0,'111331111,111111111,999999991'
Kerr-McGee,ioos:station:wmo:42373:1,2021-01-17T14:06:00Z,27.3539,-94.6254,79.0,1.2,0.0,-9999.0,'111331111,111441111,999999991'
Kerr-McGee,ioos:station:wmo:42373:1,2021-01-17T14:26:00Z,27.3539,-94.6254,79.0,2.1,14.0,-9999.0,'111331111,111111111,999999991'
Kerr-McGee,ioos:station:wmo:42373:1,2021-01-17T14:46:00Z,27.3539,-94.6254,79.0,2.0,327.1,-9999.0,'111331111,111111111,999999991'
Kerr-McGee,ioos:station:wmo:42373:1,2021-01-17T15:06:00Z,27.3539,-94.6254,79.0,1.6,345.1,-9999.0,'111331111,111111111,999999991'
Kerr-McGee,ioos:station:wmo:42373:1,2021-01-17T15:26:00Z,27.3539,-94.6254,79.0,3.2,323.8,-9999.0,'111111111,111111111,999999991'
Kerr-McGee,ioos:station:wmo:42373:1,2021-01-17T15:46:00Z,27.3539,-94.6254,79.0,3.3,321.1,-9999.0,'111111111,111111111,999999991'
Kerr-McGee,ioos:station:wmo:42373:1,2021-01-17T16:06:00Z,27.3539,-94.6254,79.0,5.0,300.2,-9999.0,'111111111,111111111,999999991'
Kerr-McGee,ioos:station:wmo:42373:1,2021-01-17T16:26:00Z,27.3539,-94.6254,79.0,6.6,298.9,-9999.0,'111111111,111111111,999999991'
Kerr-McGee,ioos:station:wmo:42373:1,2021-01-17T16:46:00Z,27.3539,-94.6254,79.0,7.3,296.9,-9999.0,'111111111,111111111,999999991'
Kerr-McGee,ioos:station:wmo:42373:1,2021-01-17T17:06:00Z,27.3539,-94.6254,79.0,9.4,298.8,-9999.0,'111111111,111111111,999999991'
Kerr-McGee,ioos:station:wmo:42373:1,2021-01-17T17:26:00Z,27.3539,-94.6254,79.0,10.1,294.5,-9999.0,'111111111,111111111,999999991'
Kerr-McGee,ioos:station:wmo:42373:1,2021-01-17T17:46:00Z,27.3539,-94.6254,79.0,11.1,293.8,-9999.0,'111111111,111111111,999999991'
Kerr-McGee,ioos:station:wmo:42373:1,2021-01-17T18:06:00Z,27.3539,-94.6254,79.0,12.7,296.8,-9999.0,'111111111,111111111,999999991'
Kerr-McGee,ioos:station:wmo:42373:1,2021-01-17T18:26:00Z,27.3539,-94.6254,79.0,12.6,301.7,-9999.0,'111111111,111111111,999999991'
Kerr-McGee,ioos:station:wmo:42373:1,2021-01-17T18:46:00Z,27.3539,-94.6254,79.0,12.7,302.4,-9999.0,'111111111,111111111,999999991'
Kerr-McGee,ioos:station:wmo:42373:1,2021-01-17T19:06:00Z,27.3539,-94.6254,79.0,11.2,309.2,-9999.0,'111111111,111111111,999999991'
Kerr-McGee,ioos:station:wmo:42373:1,2021-01-17T19:26:00Z,27.3539,-94.6254,79.0,9.2,328.7,-9999.0,'111111111,111111111,999999991'
Kerr-McGee,ioos:station:wmo:42373:1,2021-01-17T19:46:00Z,27.3539,-94.6254,79.0,8.9,343.6,-9999.0,'111111111,111111111,999999991'
Kerr-McGee,ioos:station:wmo:42373:1,2021-01-17T20:06:00Z,27.3539,-94.6254,79.0,9.0,356.8,-9999.0,'111111111,111111111,999999991'
Kerr-McGee,ioos:station:wmo:42373:1,2021-01-17T20:26:00Z,27.3539,-94.6254,79.0,10.7,354.7,-9999.0,'111111111,111111111,999999991'
Kerr-McGee,ioos:station:wmo:42373:1,2021-01-17T20:46:00Z,27.3539,-94.6254,79.0,12.8,355.1,-9999.0,'111111111,111111111,999999991'
Kerr-McGee,ioos:station:wmo:42373:1,2021-01-17T21:06:00Z,27.3539,-94.6254,79.0,14.3,2.4,-9999.0,'111111111,111111111,999999991'
Kerr-McGee,ioos:station:wmo:42373:1,2021-01-17T21:26:00Z,27.3539,-94.6254,79.0,15.6,353.7,-9999.0,'111111111,111111111,999999991'
Kerr-McGee,ioos:station:wmo:42373:1,2021-01-17T21:46:00Z,27.3539,-94.6254,79.0,16.5,9.1,-9999.0,'111111111,111111111,999999991'
Kerr-McGee,ioos:station:wmo:42373:1,2021-01-17T22:06:00Z,27.3539,-94.6254,79.0,16.5,4.5,-9999.0,'111111111,111111111,999999991'
Kerr-McGee,ioos:station:wmo:42373:1,2021-01-17T22:26:00Z,27.3539,-94.6254,79.0,17.4,12.0,-9999.0,'111111111,111111111,999999991'
Kerr-McGee,ioos:station:wmo:42373:1,2021-01-17T22:46:00Z,27.3539,-94.6254,79.0,16.2,9.2,-9999.0,'111111111,111111111,999999991'
Kerr-McGee,ioos:station:wmo:42373:1,2021-01-17T23:06:00Z,27.3539,-94.6254,79.0,16.6,6.6,-9999.0,'111111111,111111111,999999991'
Kerr-McGee,ioos:station:wmo:42373:1,2021-01-17T23:26:00Z,27.3539,-94.6254,79.0,17.3,16.1,-9999.0,'111111111,111111111,999999991'
Kerr-McGee,ioos:station:wmo:42373:1,2021-01-17T23:46:00Z,27.3539,-94.6254,79.0,16.5,9.7,-9999.0,'111111111,111111111,999999991'
Kerr-McGee,ioos:station:wmo:42373:1,2021-01-18T00:06:00Z,27.3539,-94.6254,79.0,18.9,17.3,-9999.0,'111111111,111111111,999999991'
Kerr-McGee,ioos:station:wmo:42373:1,2021-01-18T00:26:00Z,27.3539,-94.6254,79.0,17.4,7.9,-9999.0,'111111111,111111111,999999991'
Kerr-McGee,ioos:station:wmo:42373:1,2021-01-18T00:46:00Z,27.3539,-94.6254,79.0,18.0,8.3,-9999.0,'111111111,111111111,999999991'
Kerr-McGee,ioos:station:wmo:42373:1,2021-01-18T01:06:00Z,27.3539,-94.6254,79.0,17.9,2.9,-9999.0,'111111111,111111111,999999991'
Kerr-McGee,ioos:station:wmo:42373:1,2021-01-18T01:26:00Z,27.3539,-94.6254,79.0,18.2,354.9,-9999.0,'111111111,111111111,999999991'
Kerr-McGee,ioos:station:wmo:42373:1,2021-01-18T01:46:00Z,27.3539,-94.6254,79.0,17.3,357.4,-9999.0,'111111111,111111111,999999991'
Kerr-McGee,ioos:station:wmo:42373:1,2021-01-18T02:06:00Z,27.3539,-94.6254,79.0,19.4,355.3,-9999.0,'111111111,111111111,999999991'
Kerr-McGee,ioos:station:wmo:42373:1,2021-01-18T02:26:00Z,27.3539,-94.6254,79.0,20.0,346.4,-9999.0,'111111111,111111111,999999991'
Kerr-McGee,ioos:station:wmo:42373:1,2021-01-18T02:46:00Z,27.3539,-94.6254,79.0,19.5,341.8,-9999.0,'111111111,111111111,999999991'
Kerr-McGee,ioos:station:wmo:42373:1,2021-01-18T03:06:00Z,27.3539,-94.6254,79.0,18.7,341.0,-9999.0,'111111111,111111111,999999991'
Kerr-McGee,ioos:station:wmo:42373:1,2021-01-18T03:26:00Z,27.3539,-94.6254,79.0,19.6,332.7,-9999.0,'111111111,111111111,999999991'
Kerr-McGee,ioos:station:wmo:42373:1,2021-01-18T03:46:00Z,27.3539,-94.6254,79.0,20.0,328.1,-9999.0,'111111111,111111111,999999991'
Kerr-McGee,ioos:station:wmo:42373:1,2021-01-18T04:06:00Z,27.3539,-94.6254,79.0,18.3,329.5,-9999.0,'111111111,111111111,999999991'
Kerr-McGee,ioos:station:wmo:42373:1,2021-01-18T04:26:00Z,27.3539,-94.6254,79.0,18.6,331.8,-9999.0,'111111111,111111111,999999991'
Kerr-McGee,ioos:station:wmo:42373:1,2021-01-18T04:46:00Z,27.3539,-94.6254,79.0,19.7,322.0,-9999.0,'111111111,111111111,999999991'
Kerr-McGee,ioos:station:wmo:42373:1,2021-01-18T05:06:00Z,27.3539,-94.6254,79.0,18.5,323.6,-9999.0,'111111111,111111111,999999991'
Kerr-McGee,ioos:station:wmo:42373:1,2021-01-18T05:26:00Z,27.3539,-94.6254,79.0,19.1,324.6,-9999.0,'111111111,111111111,999999991'
Kerr-McGee,ioos:station:wmo:42373:1,2021-01-18T05:46:00Z,27.3539,-94.6254,79.0,19.1,323.7,-9999.0,'111111111,111111111,999999991'
Kerr-McGee,ioos:station:wmo:42373:1,2021-01-18T06:06:00Z,27.3539,-94.6254,79.0,18.3,321.9,-9999.0,'111111111,111111111,999999991'
Kerr-McGee,ioos:station:wmo:42373:1,2021-01-18T06:26:00Z,27.3539,-94.6254,79.0,18.7,315.2,-9999.0,'111111111,111111111,999999991'
Kerr-McGee,ioos:station:wmo:42373:1,2021-01-18T06:46:00Z,27.3539,-94.6254,79.0,19.2,315.0,-9999.0,'111111111,111111111,999999991'
Kerr-McGee,ioos:station:wmo:42373:1,2021-01-18T07:06:00Z,27.3539,-94.6254,79.0,18.2,310.1,-9999.0,'111111111,111111111,999999991'
Kerr-McGee,ioos:station:wmo:42373:1,2021-01-18T07:26:00Z,27.3539,-94.6254,79.0,15.5,329.0,-9999.0,'111111111,111111111,999999991'
Kerr-McGee,ioos:station:wmo:42373:1,2021-01-18T07:46:00Z,27.3539,-94.6254,79.0,15.1,323.4,-9999.0,'111111111,111111111,999999991'
Kerr-McGee,ioos:station:wmo:42373:1,2021-01-18T08:06:00Z,27.3539,-94.6254,79.0,15.1,327.7,-9999.0,'111111111,111111111,999999991'
Kerr-McGee,ioos:station:wmo:42373:1,2021-01-18T08:26:00Z,27.3539,-94.6254,79.0,13.7,336.8,-9999.0,'111111111,111111111,999999991'
Kerr-McGee,ioos:station:wmo:42373:1,2021-01-18T08:46:00Z,27.3539,-94.6254,79.0,13.9,341.0,-9999.0,'111111111,111111111,999999991'
Kerr-McGee,ioos:station:wmo:42373:1,2021-01-18T09:06:00Z,27.3539,-94.6254,79.0,13.7,349.9,-9999.0,'111111111,111111111,999999991'
Kerr-McGee,ioos:station:wmo:42373:1,2021-01-18T09:26:00Z,27.3539,-94.6254,79.0,12.8,359.6,-9999.0,'111111111,111441111,999999991'
Kerr-McGee,ioos:station:wmo:42373:1,2021-01-18T09:46:00Z,27.3539,-94.6254,79.0,11.9,342.9,-9999.0,'111111111,111111111,999999991'
Kerr-McGee,ioos:station:wmo:42373:1,2021-01-18T10:06:00Z,27.3539,-94.6254,79.0,11.2,0.0,-9999.0,'111111111,111441111,999999991'
Kerr-McGee,ioos:station:wmo:42373:1,2021-01-18T10:26:00Z,27.3539,-94.6254,79.0,12.9,34.6,-9999.0,'111111111,111111111,999999991'
Kerr-McGee,ioos:station:wmo:42373:1,2021-01-18T10:46:00Z,27.3539,-94.6254,79.0,10.8,34.4,-9999.0,'111111111,111111111,999999991'
Kerr-McGee,ioos:station:wmo:42373:1,2021-01-18T11:06:00Z,27.3539,-94.6254,79.0,10.3,22.3,-9999.0,'111111111,111111111,999999991'
Kerr-McGee,ioos:station:wmo:42373:1,2021-01-18T11:26:00Z,27.3539,-94.6254,79.0,9.1,16.0,-9999.0,'111111111,111111111,999999991'
Kerr-McGee,ioos:station:wmo:42373:1,2021-01-18T11:46:00Z,27.3539,-94.6254,79.0,8.1,0.0,-9999.0,'111111111,111441111,999999991'
Kerr-McGee,ioos:station:wmo:42373:1,2021-01-18T12:06:00Z,27.3539,-94.6254,79.0,9.1,336.8,-9999.0,'111111111,111111111,999999991'
Kerr-McGee,ioos:station:wmo:42373:1,2021-01-18T12:26:00Z,27.3539,-94.6254,79.0,7.8,338.1,-9999.0,'111111111,111111111,999999991'
Kerr-McGee,ioos:station:wmo:42373:1,2021-01-18T12:46:00Z,27.3539,-94.6254,79.0,7.4,344.3,-9999.0,'111111111,111111111,999999991'
Kerr-McGee,ioos:station:wmo:42373:1,2021-01-18T13:06:00Z,27.3539,-94.6254,79.0,7.9,337.7,-9999.0,'111111111,111111111,999999991'
Kerr-McGee,ioos:station:wmo:42373:1,2021-01-18T13:26:00Z,27.3539,-94.6254,79.0,8.1,321.0,-9999.0,'111111111,111111111,999999991'
Kerr-McGee,ioos:station:wmo:42373:1,2021-01-18T13:46:00Z,27.3539,-94.6254,79.0,10.4,306.0,-9999.0,'111111111,111111111,999999991'
Kerr-McGee,ioos:station:wmo:42373:1,2021-01-18T14:06:00Z,27.3539,-94.6254,79.0,9.9,300.2,-9999.0,'111111111,111111111,999999991'
Kerr-McGee,ioos:station:wmo:42373:1,2021-01-18T14:26:00Z,27.3539,-94.6254,79.0,9.4,301.5,-9999.0,'111111111,111111111,999999991'
Kerr-McGee,ioos:station:wmo:42373:1,2021-01-18T14:46:00Z,27.3539,-94.6254,79.0,7.0,335.6,-9999.0,'111111111,111111111,999999991'
Kerr-McGee,ioos:station:wmo:42373:1,2021-01-18T15:06:00Z,27.3539,-94.6254,79.0,7.7,318.7,-9999.0,'111111111,111111111,999999991'
Kerr-McGee,ioos:station:wmo:42373:1,2021-01-18T15:26:00Z,27.3539,-94.6254,79.0,6.4,334.2,-9999.0,'111111111,111111111,999999991'
Kerr-McGee,ioos:station:wmo:42373:1,2021-01-18T15:46:00Z,27.3539,-94.6254,79.0,62.7,73.6,-9999.0,'111111311,111111311,999999991'
Kerr-McGee,ioos:station:wmo:42373:1,2021-01-18T16:06:00Z,27.3539,-94.6254,79.0,12.0,301.7,-9999.0,'111111311,111111311,999999991'
Kerr-McGee,ioos:station:wmo:42373:1,2021-01-18T16:26:00Z,27.3539,-94.6254,79.0,8.9,339.5,-9999.0,'111111111,111111111,999999991'
Kerr-McGee,ioos:station:wmo:42373:1,2021-01-18T16:46:00Z,27.3539,-94.6254,79.0,10.7,340.4,-9999.0,'111111111,111111111,999999991'
Kerr-McGee,ioos:station:wmo:42373:1,2021-01-18T17:06:00Z,27.3539,-94.6254,79.0,11.7,342.0,-9999.0,'111111111,111111111,999999991'
Kerr-McGee,ioos:station:wmo:42373:1,2021-01-18T17:26:00Z,27.3539,-94.6254,79.0,9.4,0.0,-9999.0,'111111111,111441111,999999991'
Kerr-McGee,ioos:station:wmo:42373:1,2021-01-18T17:46:00Z,27.3539,-94.6254,79.0,8.8,7.2,-9999.0,'111111111,111111111,999999991'
Kerr-McGee,ioos:station:wmo:42373:1,2021-01-18T18:06:00Z,27.3539,-94.6254,79.0,9.1,6.3,-9999.0,'111111111,111111111,999999991'
Kerr-McGee,ioos:station:wmo:42373:1,2021-01-18T18:26:00Z,27.3539,-94.6254,79.0,8.6,31.7,-9999.0,'111111111,111111111,999999991'
Kerr-McGee,ioos:station:wmo:42373:1,2021-01-18T18:46:00Z,27.3539,-94.6254,79.0,10.5,46.5,-9999.0,'111111111,111111111,999999991'
Kerr-McGee,ioos:station:wmo:42373:1,2021-01-18T19:06:00Z,27.3539,-94.6254,79.0,10.4,42.3,-9999.0,'111111111,111111111,999999991'
Kerr-McGee,ioos:station:wmo:42373:1,2021-01-18T19:26:00Z,27.3539,-94.6254,79.0,11.6,41.5,-9999.0,'111111111,111111111,999999991'
Kerr-McGee,ioos:station:wmo:42373:1,2021-01-18T19:46:00Z,27.3539,-94.6254,79.0,11.1,41.3,-9999.0,'111111111,111111111,999999991'
Kerr-McGee,ioos:station:wmo:42373:1,2021-01-18T20:06:00Z,27.3539,-94.6254,79.0,8.5,32.9,-9999.0,'111111111,111111111,999999991'
Kerr-McGee,ioos:station:wmo:42373:1,2021-01-18T20:26:00Z,27.3539,-94.6254,79.0,9.6,38.7,-9999.0,'111111111,111111111,999999991'
Kerr-McGee,ioos:station:wmo:42373:1,2021-01-18T20:46:00Z,27.3539,-94.6254,79.0,11.5,42.2,-9999.0,'111111111,111111111,999999991'
Kerr-McGee,ioos:station:wmo:42373:1,2021-01-18T21:06:00Z,27.3539,-94.6254,79.0,13.1,37.6,-9999.0,'111111111,111111111,999999991'
Kerr-McGee,ioos:station:wmo:42373:1,2021-01-18T21:26:00Z,27.3539,-94.6254,79.0,13.9,30.6,-9999.0,'111111111,111111111,999999991'
Kerr-McGee,ioos:station:wmo:42373:1,2021-01-18T21:46:00Z,27.3539,-94.6254,79.0,14.4,29.6,-9999.0,'111111111,111111111,999999991'
Kerr-McGee,ioos:station:wmo:42373:1,2021-01-18T22:06:00Z,27.3539,-94.6254,79.0,13.5,18.6,-9999.0,'111111111,111111111,999999991'
Kerr-McGee,ioos:station:wmo:42373:1,2021-01-18T22:26:00Z,27.3539,-94.6254,79.0,13.4,17.4,-9999.0,'111111111,111111111,999999991'
Kerr-McGee,ioos:station:wmo:42373:1,2021-01-18T22:46:00Z,27.3539,-94.6254,79.0,14.0,17.4,-9999.0,'111111111,111111111,999999991'
Kerr-McGee,ioos:station:wmo:42373:1,2021-01-18T23:06:00Z,27.3539,-94.6254,79.0,15.4,25.7,-9999.0,'111111111,111111111,999999991'
Kerr-McGee,ioos:station:wmo:42373:1,2021-01-18T23:26:00Z,27.3539,-94.6254,79.0,16.5,32.2,-9999.0,'111111111,111111111,999999991'
Kerr-McGee,ioos:station:wmo:42373:1,2021-01-18T23:46:00Z,27.3539,-94.6254,79.0,17.5,36.0,-9999.0,'111111111,111111111,999999991'
Kerr-McGee,ioos:station:wmo:42373:1,2021-01-19T00:06:00Z,27.3539,-94.6254,79.0,15.5,23.9,-9999.0,'111111111,111111111,999999991'
Kerr-McGee,ioos:station:wmo:42373:1,2021-01-19T00:26:00Z,27.3539,-94.6254,79.0,15.8,8.0,-9999.0,'111111111,111111111,999999991'
Kerr-McGee,ioos:station:wmo:42373:1,2021-01-19T00:46:00Z,27.3539,-94.6254,79.0,16.5,355.5,-9999.0,'111111111,111111111,999999991'
Kerr-McGee,ioos:station:wmo:42373:1,2021-01-19T01:06:00Z,27.3539,-94.6254,79.0,17.8,348.3,-9999.0,'111111111,111111111,999999991'
Kerr-McGee,ioos:station:wmo:42373:1,2021-01-19T01:26:00Z,27.3539,-94.6254,79.0,17.2,359.0,-9999.0,'111111111,111441111,999999991'
Kerr-McGee,ioos:station:wmo:42373:1,2021-01-19T01:46:00Z,27.3539,-94.6254,79.0,19.3,347.8,-9999.0,'111111111,111111111,999999991'
Kerr-McGee,ioos:station:wmo:42373:1,2021-01-19T02:06:00Z,27.3539,-94.6254,79.0,20.0,350.8,-9999.0,'111111111,111111111,999999991'
Kerr-McGee,ioos:station:wmo:42373:1,2021-01-19T02:26:00Z,27.3539,-94.6254,79.0,20.8,349.2,-9999.0,'111111111,111111111,999999991'
Kerr-McGee,ioos:station:wmo:42373:1,2021-01-19T02:46:00Z,27.3539,-94.6254,79.0,22.5,345.0,-9999.0,'111111111,111111111,999999991'
Kerr-McGee,ioos:station:wmo:42373:1,2021-01-19T03:06:00Z,27.3539,-94.6254,79.0,22.4,356.2,-9999.0,'111111111,111111111,999999991'
Kerr-McGee,ioos:station:wmo:42373:1,2021-01-19T03:26:00Z,27.3539,-94.6254,79.0,22.4,352.1,-9999.0,'111111111,111111111,999999991'
Kerr-McGee,ioos:station:wmo:42373:1,2021-01-19T03:46:00Z,27.3539,-94.6254,79.0,21.7,348.3,-9999.0,'111111111,111111111,999999991'
Kerr-McGee,ioos:station:wmo:42373:1,2021-01-19T04:06:00Z,27.3539,-94.6254,79.0,19.0,355.5,-9999.0,'111111111,111111111,999999991'
Kerr-McGee,ioos:station:wmo:42373:1,2021-01-19T04:26:00Z,27.3539,-94.6254,79.0,22.7,352.2,-9999.0,'111111111,111111111,999999991'
Kerr-McGee,ioos:station:wmo:42373:1,2021-01-19T04:46:00Z,27.3539,-94.6254,79.0,23.9,336.3,-9999.0,'111111111,111111111,999999991'
Kerr-McGee,ioos:station:wmo:42373:1,2021-01-19T05:06:00Z,27.3539,-94.6254,79.0,24.7,324.9,-9999.0,'111111111,111111111,999999991'
Kerr-McGee,ioos:station:wmo:42373:1,2021-01-19T05:26:00Z,27.3539,-94.6254,79.0,23.6,324.8,-9999.0,'111111111,111111111,999999991'
Kerr-McGee,ioos:station:wmo:42373:1,2021-01-19T05:46:00Z,27.3539,-94.6254,79.0,23.2,329.1,-9999.0,'111111111,111111111,999999991'
Kerr-McGee,ioos:station:wmo:42373:1,2021-01-19T06:06:00Z,27.3539,-94.6254,79.0,25.2,320.8,-9999.0,'111111111,111111111,999999991'
Kerr-McGee,ioos:station:wmo:42373:1,2021-01-19T06:26:00Z,27.3539,-94.6254,79.0,22.4,332.9,-9999.0,'111111111,111111111,999999991'
Kerr-McGee,ioos:station:wmo:42373:1,2021-01-19T06:46:00Z,27.3539,-94.6254,79.0,23.0,338.8,-9999.0,'111111111,111111111,999999991'
Kerr-McGee,ioos:station:wmo:42373:1,2021-01-19T07:06:00Z,27.3539,-94.6254,79.0,21.9,341.4,-9999.0,'111111111,111111111,999999991'
Kerr-McGee,ioos:station:wmo:42373:1,2021-01-19T07:26:00Z,27.3539,-94.6254,79.0,24.6,359.3,-9999.0,'111111111,111441111,999999991'
Kerr-McGee,ioos:station:wmo:42373:1,2021-01-19T07:46:00Z,27.3539,-94.6254,79.0,23.7,5.8,-9999.0,'111111111,111111111,999999991'
Kerr-McGee,ioos:station:wmo:42373:1,2021-01-19T08:06:00Z,27.3539,-94.6254,79.0,23.8,358.8,-9999.0,'111111111,111111111,999999991'
Kerr-McGee,ioos:station:wmo:42373:1,2021-01-19T08:26:00Z,27.3539,-94.6254,79.0,21.7,348.3,-9999.0,'111111111,111111111,999999991'
Kerr-McGee,ioos:station:wmo:42373:1,2021-01-19T08:46:00Z,27.3539,-94.6254,79.0,22.0,344.4,-9999.0,'111111111,111111111,999999991'
Kerr-McGee,ioos:station:wmo:42373:1,2021-01-19T09:06:00Z,27.3539,-94.6254,79.0,23.7,6.0,-9999.0,'111111111,111111111,999999991'
Kerr-McGee,ioos:station:wmo:42373:1,2021-01-19T09:26:00Z,27.3539,-94.6254,79.0,22.6,2.0,-9999.0,'111111111,111111111,999999991'